Weather in Verkhneyarkeevo

Russia / Republic of Bashkortostan     55°27′05″N   54°18′32″E
temp.,
°C
wind,
m/s
gust,
m/s
humid.,
%
clouds,
%
prec.,
mm/h
press.,
hPa
HPBL,
m
19 january, wed
wed1923:00−3ssw91787100 0.1 1012583
02:00−2sw91789100 0.0 1013756
05:00−3sw91790100 0.1 1014708
08:00−4ssw81689100 0.0 1015525
11:00−4ssw81589100 0.0 1016470
14:00−3ssw71590100 0.0 1017608
17:00−3ssw81590100 0.1 1018605
20:00−4s71490100 0.1 1018529
20 january, thu
thu2023:00−4ssw71591100 0.2 1018552
02:00−6ssw71489100 0.2 1019434
05:00−6ssw61390100 0.2 1020339
08:00−7ssw61292100 0.0 1021349
11:00−7ssw5119398 0.1 1021324
14:00−6ssw5119153 0.0 1022384
17:00−7ssw5109190 0.0 1022302
20:00−10ssw4108942 0.0 1022183
21 january, fri
fri2123:00−13s49855 0.0 1023126
02:00−15s35857 0.0 102365
05:00−17s228864 0.0 102425
08:00−18sse228813 0.0 102414
11:00−16s33845 0.0 102538
14:00−11sse23825 0.0 102487
17:00−14se328666 0.0 102426
20:00−17sse338578 0.0 102522
22 january, sat
sat2223:00−18sse2285100 0.0 102519
02:00−18se348489 0.0 102638
05:00−15se3483100 0.0 102662
08:00−14se2483100 0.0 102663
11:00−12se2482100 0.0 102697
14:00−10se3681100 0.0 1027170
17:00−10se228895 0.0 102830
20:00−14se2291100 0.0 102823
23 january, sun
sun2323:00−15se3390100 0.0 102924
02:00−15sse2291100 0.0 103017
05:00−16sse2290100 0.0 103119
08:00−16se2290100 0.0 103218
11:00−13sse2484100 0.0 103360
14:00−9se2481100 0.0 1034130
17:00−10se2288100 0.0 103537
20:00−11se3387100 0.0 103655